User: anonymous
Location: Unspecified
(0.0000°N, 0.0000°E)
Time: 03:12:07
(UTC+00:00)
Language:

COSMOS 2468 - Orbit

View from above orbital plane
View from above orbital plane
View from above satellite
View from above satellite

Ground track
Ground track

The orbit data is extracted from the following two-line orbital elements,

1 37154U 10043C   14110.02594288  .00000060  00000-0  36337-3 0  1132
2 37154 082.4631 322.1415 0013454 294.3785 065.5884 12.42883756163922
Epoch (UTC): 20 April 2014 00:37:21
Eccentricity: 0.0013454
inclination: 82.4631°
perigee height: 1484 km
apogee height: 1505 km
right ascension of ascending node: 322.1415°
argument of perigee: 294.3785°
revolutions per day: 12.42883756
mean anomaly at epoch: 65.5884°
orbit number at epoch: 16392

The dashed part of the orbit path shows where the satellite is in the earth's shadow,  

DLR